period_start,C,m1,H,J0,J1,J2,J3,J4,J5,JA,JB,JC,JD,JJ,JK,JN,#
2017-09-17 00:03:50,0.00,0.31,0.00,24.00,26.05,28.98,13.83,39.88,1019.06,2038.00,3455.98,3013.00,3447.00,600.16,595.50,38.19,0000 0000 0000 0000 000000
2017-09-17 00:08:51,0.00,0.31,0.00,24.00,26.05,28.99,13.70,39.92,1019.06,2038.00,3455.97,3013.00,3447.00,599.91,595.37,38.24,0000 0000 0000 0000 000000
2017-09-17 00:13:52,0.01,0.31,0.00,23.98,26.05,28.98,13.76,39.88,1019.06,2038.00,3455.26,3012.99,3446.83,599.92,595.45,38.29,0000 0000 0000 0000 000000
2017-09-17 00:18:54,0.00,0.31,0.00,23.99,26.04,28.97,13.74,39.89,1019.06,2038.00,3455.08,3012.99,3446.45,599.80,595.28,38.34,0000 0000 0000 0000 000000
2017-09-17 00:23:55,0.00,0.31,0.00,23.97,26.03,28.97,13.75,39.82,1019.06,2038.00,3455.01,3012.97,3446.18,600.10,595.56,38.39,0000 0000 0000 0000 000000
2017-09-17 00:28:57,0.00,0.31,0.00,23.98,26.02,28.97,13.72,39.94,1019.06,2038.00,3455.00,3012.95,3446.04,600.07,595.56,38.44,0000 0000 0000 0000 000000
2017-09-17 00:33:58,0.00,0.31,0.00,24.02,26.02,28.97,13.71,39.87,1019.06,2038.00,3454.99,3012.94,3446.02,599.96,595.52,38.49,0000 0000 0000 0000 000000
2017-09-17 00:38:59,0.00,0.31,0.00,24.00,26.02,28.96,13.72,39.85,1019.07,2038.00,3454.97,3012.91,3446.00,599.91,595.33,38.54,0000 0000 0000 0000 000000
2017-09-17 00:44:00,0.00,0.31,0.00,23.99,26.02,28.95,13.70,39.94,1019.08,2038.01,3454.85,3012.92,3446.00,599.79,595.43,38.59,0000 0000 0000 0000 000000
2017-09-17 00:49:01,0.01,0.31,0.00,23.98,26.02,28.95,13.78,39.92,1019.08,2038.00,3454.34,3012.69,3446.00,599.63,595.12,38.64,0000 0000 0000 0000 000000
2017-09-17 00:54:02,0.01,0.31,0.00,24.01,26.01,28.94,13.79,39.92,1019.08,2038.02,3454.13,3012.62,3445.98,600.35,595.71,38.69,0000 0000 0000 0000 000000
2017-09-17 00:59:04,0.00,0.31,0.00,24.01,26.00,28.92,13.59,39.82,1019.07,2038.02,3454.01,3012.37,3445.95,599.46,594.77,38.74,0000 0000 0000 0000 000000
2017-09-17 01:04:05,0.00,0.31,0.00,23.99,26.00,28.91,13.71,39.98,1019.07,2038.02,3454.00,3012.33,3445.78,599.57,595.04,38.79,0000 0000 0000 0000 000000
2017-09-17 01:09:06,0.01,0.31,0.00,23.98,26.00,28.92,13.73,39.88,1019.07,2038.01,3454.00,3012.18,3445.41,599.92,595.43,38.85,0000 0000 0000 0000 000000
2017-09-17 01:14:07,0.00,0.31,0.00,23.98,26.00,28.94,13.78,39.90,1019.07,2038.02,3453.98,3012.05,3445.06,599.74,595.30,38.90,0000 0000 0000 0000 000000
2017-09-17 01:19:09,0.00,0.31,0.00,23.98,26.00,28.92,13.72,40.06,1019.09,2038.01,3453.69,3012.02,3445.02,599.87,595.35,38.95,0000 0000 0000 0000 000000
2017-09-17 01:24:10,0.01,0.31,0.00,23.99,25.99,28.91,13.74,40.27,1019.08,2038.01,3453.11,3012.01,3445.00,599.61,595.00,39.00,0000 0000 0000 0000 000000
2017-09-17 01:29:12,-0.00,0.31,0.00,24.01,25.98,28.91,13.77,39.88,1019.07,2038.05,3453.02,3012.00,3445.00,600.06,595.51,39.05,0000 0000 0000 0000 000000
2017-09-17 01:34:13,0.02,0.31,0.00,23.99,25.97,28.90,13.77,40.05,1019.07,2038.22,3453.00,3012.00,3444.99,600.12,595.54,39.10,0000 0000 0000 0000 000000
2017-09-17 01:39:15,0.02,0.31,0.00,23.96,25.97,28.91,13.69,39.89,1019.07,2038.44,3452.99,3012.00,3444.99,599.77,595.18,39.15,0000 0000 0000 0000 000000
2017-09-17 01:44:16,-0.01,0.31,0.00,24.00,25.97,28.90,13.68,40.08,1019.08,2038.30,3452.97,3012.00,3444.94,600.08,595.78,39.20,0000 0000 0000 0000 000000
2017-09-17 01:49:17,0.02,0.31,0.00,23.96,25.97,28.92,13.68,39.92,1019.07,2038.43,3452.74,3011.99,3444.67,599.95,595.49,39.25,0000 0000 0000 0000 000000
2017-09-17 01:54:18,0.04,0.32,0.00,23.97,25.97,28.91,13.78,39.98,1019.08,2038.54,3452.14,3011.96,3444.14,600.23,595.74,39.30,0000 0000 0000 0000 000000
2017-09-17 01:59:19,-0.00,0.32,0.00,23.99,25.97,28.90,13.72,40.02,1019.07,2038.59,3452.01,3011.93,3444.04,599.94,595.49,39.35,0000 0000 0000 0000 000000
2017-09-17 02:04:20,-0.04,0.31,0.00,23.97,25.97,28.89,13.74,40.28,1019.07,2038.16,3452.00,3011.80,3444.00,599.92,595.64,39.40,0000 0000 0000 0000 000000
2017-09-17 02:09:22,0.00,0.31,0.00,23.94,25.96,28.90,13.76,40.11,1019.08,2038.08,3452.00,3011.67,3444.00,599.94,595.51,39.45,0000 0000 0000 0000 000000
2017-09-17 02:14:23,0.02,0.31,0.00,23.97,25.96,28.91,13.71,40.23,1019.07,2038.11,3452.00,3011.58,3443.99,599.52,595.09,39.50,0000 0000 0000 0000 000000
2017-09-17 02:19:24,0.01,0.32,0.00,23.98,25.95,28.91,13.78,40.31,1019.06,2038.18,3451.87,3011.15,3443.93,599.96,595.52,39.55,0000 0000 0000 0000 000000
2017-09-17 02:24:25,0.02,0.32,0.00,24.00,25.95,28.91,13.75,40.17,1019.06,2038.16,3451.46,3011.08,3443.69,600.02,595.48,39.60,0000 0000 0000 0000 000000
2017-09-17 02:29:27,0.02,0.32,0.00,23.99,25.95,28.89,13.72,40.18,1019.07,2038.27,3451.18,3011.04,3443.35,599.90,595.43,39.65,0000 0000 0000 0000 000000
2017-09-17 02:34:28,-0.01,0.32,0.00,24.00,25.95,28.90,13.73,40.09,1019.07,2038.14,3451.00,3011.00,3443.03,600.01,595.50,39.70,0000 0000 0000 0000 000000
2017-09-17 02:39:29,-0.00,0.32,0.00,23.94,25.95,28.92,13.74,40.06,1019.07,2038.13,3450.99,3011.00,3443.00,599.94,595.51,39.75,0000 0000 0000 0000 000000
2017-09-17 02:44:31,0.02,0.32,0.00,23.94,25.95,28.93,13.74,40.08,1019.06,2038.29,3450.97,3011.00,3443.00,600.21,595.84,39.81,0000 0000 0000 0000 000000
2017-09-17 02:49:32,0.03,0.32,0.00,23.98,25.95,28.93,13.76,40.03,1019.06,2038.40,3450.84,3011.00,3442.99,600.06,595.51,39.86,0000 0000 0000 0000 000000
2017-09-17 02:54:34,-0.02,0.32,0.00,23.99,25.95,28.92,13.84,40.27,1019.06,2038.35,3450.66,3011.00,3442.98,600.29,595.76,39.91,0000 0000 0000 0000 000000
2017-09-17 02:59:35,-0.00,0.32,0.00,23.96,25.95,28.92,13.82,40.24,1019.07,2038.18,3450.50,3011.00,3442.84,599.94,595.49,39.96,0000 0000 0000 0000 000000
2017-09-17 03:04:36,0.01,0.32,0.00,23.97,25.96,28.93,13.74,40.26,1019.07,2038.15,3450.05,3010.99,3442.34,600.02,595.59,40.01,0000 0000 0000 0000 000000
2017-09-17 03:09:38,0.00,0.32,0.00,23.99,25.96,28.93,13.82,40.26,1019.08,2038.17,3450.01,3010.98,3442.17,600.30,595.79,40.06,0000 0000 0000 0000 000000
2017-09-17 03:14:39,0.00,0.32,0.00,23.98,25.96,28.91,13.79,40.07,1019.08,2038.11,3450.00,3010.97,3442.02,600.06,595.49,40.11,0000 0000 0000 0000 000000
2017-09-17 03:19:40,0.01,0.32,0.00,23.97,25.97,28.93,13.74,39.99,1019.07,2038.14,3449.88,3010.88,3442.00,599.90,595.35,40.16,0000 0000 0000 0000 000000
2017-09-17 03:24:41,0.01,0.32,0.00,23.96,25.97,28.93,13.72,40.02,1019.06,2038.05,3449.39,3010.52,3441.99,599.78,595.29,40.21,0000 0000 0000 0000 000000
2017-09-17 03:29:43,0.01,0.32,0.00,23.98,25.97,28.93,13.78,40.23,1019.07,2038.13,3449.02,3010.22,3441.97,600.06,595.59,40.26,0000 0000 0000 0000 000000
2017-09-17 03:34:44,0.01,0.32,0.00,23.93,25.97,28.93,13.78,40.27,1019.07,2038.21,3449.01,3010.24,3441.92,600.21,595.79,40.31,0000 0000 0000 0000 000000
2017-09-17 03:39:45,-0.00,0.32,0.00,23.94,25.97,28.94,13.79,40.14,1019.07,2038.11,3449.00,3010.09,3441.42,600.26,595.88,40.36,0000 0000 0000 0000 000000
2017-09-17 03:44:46,0.00,0.32,0.00,24.00,25.97,28.93,13.72,40.13,1019.08,2038.06,3448.98,3010.04,3441.11,599.94,595.34,40.41,0000 0000 0000 0000 000000
2017-09-17 03:49:48,0.01,0.32,0.00,23.97,25.97,28.94,13.78,40.19,1019.06,2038.09,3448.78,3010.01,3441.03,600.10,595.52,40.46,0000 0000 0000 0000 000000
2017-09-17 03:54:49,0.02,0.32,0.00,23.93,25.97,28.94,13.77,40.16,1019.06,2038.16,3448.09,3010.00,3441.00,600.02,595.67,40.51,0000 0000 0000 0000 000000
2017-09-17 03:59:50,0.00,0.32,0.00,23.96,25.97,28.95,13.83,40.24,1019.06,2038.24,3448.01,3010.00,3441.00,600.09,595.61,40.56,0000 0000 0000 0000 000000
2017-09-17 04:04:52,0.01,0.32,0.00,23.94,25.97,28.96,13.70,40.02,1019.06,2038.29,3447.99,3010.00,3440.98,599.91,595.48,40.61,0000 0000 0000 0000 000000
2017-09-17 04:09:53,0.04,0.33,0.00,23.95,25.97,28.95,13.77,40.05,1019.06,2038.74,3447.88,3009.96,3440.96,600.07,595.72,40.66,0000 0000 0000 0000 000000
2017-09-17 04:14:54,-0.01,0.33,0.00,23.90,25.97,28.94,13.81,40.13,1019.06,2038.58,3447.69,3009.90,3440.53,600.18,595.90,40.72,0000 0000 0000 0000 000000
2017-09-17 04:19:56,0.01,0.33,0.00,23.94,25.97,28.94,13.81,40.09,1019.06,2038.46,3447.17,3009.82,3440.14,600.09,595.41,40.77,0000 0000 0000 0000 000000
2017-09-17 04:24:57,0.02,0.33,0.00,23.96,25.97,28.94,13.69,39.88,1019.06,2038.54,3447.00,3009.23,3440.01,599.95,595.43,40.82,0000 0000 0000 0000 000000
2017-09-17 04:29:58,0.01,0.33,0.00,24.00,25.98,28.96,13.83,39.99,1019.06,2038.55,3447.00,3009.11,3440.00,600.39,595.75,40.87,0000 0000 0000 0000 000000
2017-09-17 04:35:00,-0.02,0.33,0.00,23.96,25.99,28.97,13.73,39.98,1019.06,2038.46,3447.00,3009.28,3440.00,600.29,595.65,40.92,0000 0000 0000 0000 000000
2017-09-17 04:40:01,-0.03,0.32,0.00,23.97,26.00,28.98,13.75,40.13,1019.06,2038.07,3447.01,3009.27,3439.99,600.03,595.55,40.97,0000 0000 0000 0000 000000
2017-09-17 04:45:02,0.00,0.32,0.00,23.97,26.00,28.99,13.75,40.00,1019.06,2038.05,3447.00,3009.14,3439.99,600.33,595.83,41.02,0000 0000 0000 0000 000000
2017-09-17 04:50:04,0.00,0.32,0.00,23.90,26.00,28.95,13.79,39.94,1019.06,2038.07,3446.96,3009.05,3439.97,600.00,595.54,41.07,0000 0000 0000 0000 000000
2017-09-17 04:55:05,0.01,0.33,0.00,23.92,26.00,28.96,13.77,39.94,1019.06,2038.09,3446.79,3009.02,3439.87,600.12,595.61,41.12,0000 0000 0000 0000 000000
2017-09-17 05:00:06,0.02,0.33,0.00,23.93,26.00,28.94,13.65,39.98,1019.06,2038.05,3446.17,3009.00,3439.42,599.76,595.46,41.17,0000 0000 0000 0000 000000
2017-09-17 05:05:07,-0.00,0.33,0.00,23.95,26.01,28.92,13.73,40.05,1019.06,2038.04,3446.16,3009.00,3439.13,599.97,595.66,41.22,0000 0000 0000 0000 000000
2017-09-17 05:10:09,0.00,0.33,0.00,23.92,26.02,28.88,13.76,40.13,1019.07,2038.01,3446.04,3008.99,3439.01,600.09,595.72,41.27,0000 0000 0000 0000 000000
2017-09-17 05:15:10,0.00,0.33,0.00,23.93,26.02,28.91,13.67,39.95,1019.07,2038.01,3445.94,3008.96,3438.98,599.72,595.25,41.32,0000 0000 0000 0000 000000
2017-09-17 05:20:11,0.01,0.33,0.00,23.92,26.02,28.91,13.74,40.06,1019.06,2038.00,3445.57,3008.87,3438.85,599.91,595.53,41.37,0000 0000 0000 0000 000000
2017-09-17 05:25:12,0.01,0.33,0.00,23.90,26.04,28.89,13.69,39.85,1019.06,2038.00,3445.35,3008.57,3438.15,599.78,595.38,41.42,0000 0000 0000 0000 000000
2017-09-17 05:30:13,0.01,0.33,0.00,23.87,26.05,28.92,13.72,39.89,1019.07,2038.00,3445.18,3008.60,3438.05,600.11,595.80,41.47,0000 0000 0000 0000 000000
2017-09-17 05:35:15,0.02,0.33,0.00,23.92,26.05,28.91,13.64,39.91,1019.08,2038.00,3445.00,3008.16,3438.01,599.39,595.01,41.52,0000 0000 0000 0000 000000
2017-09-17 05:40:16,0.00,0.33,0.00,23.90,26.06,28.91,13.79,39.92,1019.09,2038.00,3445.00,3008.11,3438.00,600.16,595.87,41.58,0000 0000 0000 0000 000000
2017-09-17 05:45:17,0.00,0.33,0.00,23.88,26.07,28.88,13.79,40.04,1019.20,2038.00,3444.98,3008.02,3437.98,600.05,595.83,41.63,0000 0000 0000 0000 000000
2017-09-17 05:50:19,0.00,0.33,0.00,23.91,26.07,28.91,13.80,40.01,1019.38,2038.00,3444.68,3008.00,3437.98,599.97,595.72,41.68,0000 0000 0000 0000 000000
2017-09-17 05:55:20,0.01,0.33,0.00,23.90,26.08,28.87,13.71,39.94,1019.41,2038.00,3444.05,3008.00,3437.75,599.98,595.89,41.73,0000 0000 0000 0000 000000
2017-09-17 06:00:21,0.00,0.33,0.00,23.91,26.10,28.92,13.73,39.91,1019.48,2038.00,3444.04,3008.00,3437.40,600.00,595.88,41.78,0000 0000 0000 0000 000000
2017-09-17 06:05:22,0.00,0.33,0.00,23.94,26.10,28.94,13.72,40.00,1019.52,2038.00,3444.01,3008.00,3437.17,599.89,595.80,41.83,0000 0000 0000 0000 000000
2017-09-17 06:10:24,0.00,0.33,0.00,23.85,26.10,28.95,13.77,40.00,1019.53,2037.99,3443.98,3007.99,3437.01,600.03,596.02,41.88,0000 0000 0000 0000 000000
2017-09-17 06:15:25,0.00,0.33,0.00,23.83,26.12,28.95,13.79,40.05,1019.53,2037.99,3443.97,3007.97,3437.00,599.92,595.99,41.93,0000 0000 0000 0000 000000
2017-09-17 06:20:25,0.00,0.33,0.00,23.86,26.12,28.97,13.85,40.25,1019.52,2037.98,3443.95,3007.96,3436.99,600.28,596.29,41.98,0000 0000 0000 0000 000000
2017-09-17 06:25:27,0.01,0.33,0.00,23.81,26.12,28.94,13.80,40.10,1019.52,2037.97,3443.74,3007.88,3436.75,600.15,596.25,42.03,0000 0000 0000 0000 000000
2017-09-17 06:30:28,0.02,0.33,0.00,23.91,26.12,28.94,13.81,40.14,1019.53,2037.93,3443.20,3007.61,3436.23,600.31,596.13,42.08,0000 0000 0000 0000 000000
2017-09-17 06:35:29,0.01,0.33,0.00,23.85,26.14,29.01,13.80,40.16,1019.54,2037.93,3443.01,3007.18,3436.02,600.05,596.07,42.13,0000 0000 0000 0000 000000
2017-09-17 06:40:30,-0.01,0.33,0.00,23.96,26.15,29.00,13.76,39.98,1019.55,2037.80,3443.00,3007.06,3436.00,599.66,595.53,42.18,0000 0000 0000 0000 000000
2017-09-17 06:45:31,-0.01,0.33,0.00,23.83,26.15,29.01,13.77,39.94,1019.54,2037.74,3442.99,3007.05,3436.00,599.97,596.01,42.23,0000 0000 0000 0000 000000
2017-09-17 06:50:32,-0.01,0.33,0.00,23.92,26.15,28.98,13.78,40.00,1019.55,2037.49,3442.97,3007.02,3435.99,600.06,596.01,42.28,0000 0000 0000 0000 000000
2017-09-17 06:55:34,-0.01,0.33,0.00,23.86,26.15,29.07,13.80,40.02,1019.55,2037.41,3442.71,3007.01,3435.93,600.14,596.19,42.33,0000 0000 0000 0000 000000
2017-09-17 07:00:35,0.01,0.33,0.00,23.84,26.16,29.05,13.77,39.98,1019.55,2037.31,3442.10,3007.00,3435.43,599.82,595.95,42.38,0000 0000 0000 0000 000000
2017-09-17 07:05:36,-0.01,0.33,0.00,23.87,26.17,29.06,13.74,40.02,1019.55,2037.18,3442.02,3007.00,3435.09,599.93,595.92,42.43,0000 0000 0000 0000 000000
2017-09-17 07:10:37,-0.01,0.33,0.00,23.92,26.17,29.08,13.74,40.16,1019.55,2037.10,3442.00,3007.00,3435.02,599.73,595.76,42.48,0000 0000 0000 0000 000000
2017-09-17 07:15:39,-0.00,0.33,0.00,23.87,26.17,29.06,13.82,40.05,1019.55,2037.06,3441.97,3006.99,3435.00,600.03,596.06,42.53,0000 0000 0000 0000 000000
2017-09-17 07:20:40,-0.00,0.33,0.00,23.87,26.17,29.08,13.84,40.08,1019.56,2037.08,3441.86,3006.98,3434.99,600.34,596.25,42.58,0000 0000 0000 0000 000000
2017-09-17 07:25:41,0.01,0.33,0.00,23.91,26.18,29.06,13.71,39.95,1019.56,2037.02,3441.42,3006.95,3434.88,599.75,595.66,42.64,0000 0000 0000 0000 000000
2017-09-17 07:30:42,0.01,0.33,0.00,23.84,26.19,29.11,13.75,39.91,1019.58,2037.06,3441.06,3006.92,3434.59,599.91,596.06,42.69,0000 0000 0000 0000 000000
2017-09-17 07:35:44,0.01,0.33,0.00,23.91,26.20,29.07,13.66,39.75,1019.60,2037.05,3441.01,3006.84,3434.18,599.61,595.58,42.74,0000 0000 0000 0000 000000
2017-09-17 07:40:45,0.01,0.33,0.00,23.88,26.20,29.09,13.75,39.88,1019.71,2037.03,3440.99,3006.54,3434.02,600.15,596.35,42.79,0000 0000 0000 0000 000000
2017-09-17 07:45:46,0.01,0.33,0.00,23.88,26.20,29.10,13.73,39.77,1019.79,2037.05,3440.93,3006.29,3434.00,599.76,595.92,42.84,0000 0000 0000 0000 000000
2017-09-17 07:50:47,0.01,0.33,0.00,23.84,26.20,29.15,13.80,39.97,1019.86,2037.05,3440.50,3006.06,3433.98,600.33,596.61,42.89,0000 0000 0000 0000 000000
2017-09-17 07:55:49,0.00,0.33,0.00,23.92,26.20,29.14,13.82,39.91,1019.95,2037.01,3440.09,3006.02,3433.96,599.85,595.99,42.94,0000 0000 0000 0000 000000
2017-09-17 08:00:50,0.00,0.33,0.00,23.90,26.20,29.18,13.81,39.87,1019.97,2037.00,3440.00,3006.01,3433.60,600.08,596.20,42.99,0000 0000 0000 0000 000000
2017-09-17 08:05:51,0.00,0.33,0.00,23.84,26.20,29.15,13.79,39.86,1020.02,2037.01,3439.99,3006.00,3433.13,599.92,596.27,43.04,0000 0000 0000 0000 000000
2017-09-17 08:10:53,0.00,0.33,0.00,23.83,26.20,29.13,13.76,39.87,1020.03,2037.00,3439.97,3006.00,3433.01,600.08,596.47,43.09,0000 0000 0000 0000 000000
2017-09-17 08:15:54,0.00,0.33,0.00,23.85,26.21,29.13,13.80,39.98,1020.03,2037.01,3439.86,3005.99,3433.00,600.04,596.46,43.14,0000 0000 0000 0000 000000
2017-09-17 08:20:55,0.01,0.34,0.00,23.86,26.22,29.17,13.81,39.95,1020.03,2037.00,3439.63,3005.97,3433.00,599.97,596.33,43.19,0000 0000 0000 0000 000000
2017-09-17 08:25:57,0.01,0.34,0.00,23.81,26.22,29.15,13.76,39.98,1020.03,2037.00,3439.02,3005.92,3432.87,599.82,596.23,43.24,0000 0000 0000 0000 000000
2017-09-17 08:30:58,0.01,0.34,0.00,23.83,26.22,29.13,13.77,39.88,1020.03,2037.00,3438.99,3005.72,3432.45,599.76,596.20,43.29,0000 0000 0000 0000 000000
2017-09-17 08:35:59,0.03,0.34,0.00,23.87,26.22,29.14,13.72,39.93,1020.04,2037.00,3438.45,3005.14,3432.04,600.01,596.22,43.34,0000 0000 0000 0000 000000
2017-09-17 08:41:00,0.63,0.36,0.00,23.92,26.22,29.15,13.80,39.93,1020.04,2037.00,3425.63,2998.02,3424.07,600.22,596.33,43.39,0000 0000 0000 0000 000000
2017-09-17 08:46:01,0.02,0.37,0.00,23.84,26.22,29.18,13.81,39.98,1020.07,2037.00,3421.95,2996.00,3421.65,599.96,596.38,43.44,0000 0000 0000 0000 000000
2017-09-17 08:51:03,0.02,0.37,0.00,23.89,26.22,29.16,13.74,40.02,1020.12,2037.01,3421.26,2995.97,3421.16,599.40,595.69,43.49,0000 0000 0000 0000 000000
2017-09-17 08:56:04,0.01,0.37,0.00,23.84,26.22,29.15,13.87,40.14,1020.11,2037.01,3421.03,2995.75,3421.02,600.16,596.57,43.55,0000 0000 0000 0000 000000
2017-09-17 09:01:05,-0.00,0.37,0.00,23.88,26.22,29.17,13.80,39.91,1020.09,2037.03,3421.00,2995.78,3421.02,599.73,596.24,43.60,0000 0000 0000 0000 000000
2017-09-17 09:06:06,0.01,0.37,0.00,23.83,26.22,29.13,13.83,40.09,1020.18,2037.00,3421.00,2995.55,3421.00,599.86,596.29,43.65,0000 0000 0000 0000 000000
2017-09-17 09:11:07,-0.00,0.37,0.00,23.83,26.22,29.09,13.86,40.10,1020.35,2037.00,3421.00,2995.31,3421.00,600.36,596.93,43.70,0000 0000 0000 0000 000000
2017-09-17 09:16:09,0.01,0.37,0.00,23.83,26.22,29.14,13.81,39.93,1020.43,2037.00,3420.95,2995.05,3420.87,600.05,596.59,43.75,0000 0000 0000 0000 000000
2017-09-17 09:21:10,0.02,0.37,0.00,23.87,26.22,29.17,13.70,39.89,1020.50,2037.00,3420.45,2995.01,3420.51,599.86,596.46,43.80,0000 0000 0000 0000 000000
2017-09-17 09:26:11,0.00,0.38,0.00,23.87,26.22,29.22,13.78,40.15,1020.52,2037.00,3420.02,2995.00,3420.06,600.00,596.58,43.85,0000 0000 0000 0000 000000
2017-09-17 09:31:12,0.00,0.38,0.00,23.81,26.22,29.18,13.83,40.01,1020.52,2037.00,3420.00,2995.00,3420.01,600.03,596.79,43.90,0000 0000 0000 0000 000000
2017-09-17 09:36:13,0.00,0.38,0.00,23.89,26.22,29.19,13.76,40.00,1020.52,2037.00,3420.00,2995.00,3420.00,599.79,596.30,43.95,0000 0000 0000 0000 000000
2017-09-17 09:41:14,0.00,0.38,0.00,23.86,26.22,29.22,13.87,39.94,1020.52,2037.01,3419.90,2994.98,3420.00,600.35,596.89,44.00,0000 0000 0000 0000 000000
2017-09-17 09:46:16,0.00,0.38,0.00,23.80,26.22,29.19,13.77,40.00,1020.51,2037.00,3419.82,2994.96,3419.95,599.45,596.25,44.05,0000 0000 0000 0000 000000
2017-09-17 09:51:17,0.01,0.38,0.00,23.88,26.22,29.20,13.80,39.92,1020.51,2037.00,3419.42,2994.95,3419.80,600.13,596.65,44.10,0000 0000 0000 0000 000000
2017-09-17 09:56:19,0.01,0.38,0.00,23.90,26.22,29.19,13.82,39.91,1020.52,2037.00,3419.27,2994.97,3419.62,599.95,596.45,44.15,0000 0000 0000 0000 000000
2017-09-17 10:01:20,0.01,0.38,0.00,23.91,26.22,29.23,13.78,39.98,1020.52,2037.00,3419.08,2994.93,3419.23,600.26,596.74,44.20,0000 0000 0000 0000 000000
2017-09-17 10:06:21,-0.00,0.38,0.00,23.88,26.22,29.22,13.81,39.91,1020.51,2036.99,3419.13,2994.96,3419.12,600.29,596.85,44.25,0000 0000 0000 0000 000000
2017-09-17 10:11:23,0.00,0.38,0.00,23.91,26.22,29.22,13.82,39.95,1020.52,2036.99,3419.03,2994.86,3419.07,600.12,596.63,44.30,0000 0000 0000 0000 000000
2017-09-17 10:16:24,0.00,0.38,0.00,23.82,26.22,29.23,13.90,40.13,1020.52,2036.99,3419.00,2994.57,3419.01,600.62,597.26,44.35,0000 0000 0000 0000 000000
2017-09-17 10:21:25,0.00,0.38,0.00,23.88,26.22,29.22,13.81,39.97,1020.52,2037.00,3418.94,2994.28,3419.00,599.71,596.24,44.40,0000 0000 0000 0000 000000
2017-09-17 10:26:27,0.01,0.38,0.00,23.90,26.22,29.23,13.81,39.95,1020.52,2037.00,3418.81,2994.08,3418.99,600.17,596.63,44.45,0000 0000 0000 0000 000000
2017-09-17 10:31:27,-0.00,0.38,0.00,23.82,26.22,29.21,13.84,40.06,1020.52,2037.00,3418.94,2994.22,3418.99,600.28,597.00,44.50,0000 0000 0000 0000 000000
2017-09-17 10:36:29,0.01,0.38,0.00,23.85,26.22,29.19,13.70,39.89,1020.52,2037.00,3418.73,2994.14,3418.98,599.55,596.27,44.56,0000 0000 0000 0000 000000
2017-09-17 10:41:30,0.00,0.38,0.00,23.92,26.21,29.20,13.73,39.88,1020.52,2037.00,3418.42,2994.07,3418.96,599.84,596.27,44.61,0000 0000 0000 0000 000000
2017-09-17 10:46:31,0.00,0.38,0.00,23.86,26.21,29.20,13.85,40.01,1020.52,2037.00,3418.11,2994.05,3418.91,600.31,596.92,44.66,0000 0000 0000 0000 000000
2017-09-17 10:51:32,0.01,0.38,0.00,23.92,26.20,29.20,13.75,39.75,1020.54,2037.02,3417.87,2994.00,3418.53,599.82,596.21,44.71,0000 0000 0000 0000 000000
2017-09-17 10:56:33,0.01,0.38,0.00,23.86,26.20,29.19,13.81,39.83,1020.54,2037.05,3417.59,2994.00,3418.10,599.96,596.62,44.76,0000 0000 0000 0000 000000
2017-09-17 11:01:35,-0.00,0.38,0.00,23.90,26.20,29.17,13.82,39.95,1020.55,2037.02,3417.94,2994.00,3418.02,599.80,596.19,44.81,0000 0000 0000 0000 000000
2017-09-17 11:06:36,0.00,0.38,0.00,23.83,26.20,29.20,13.84,39.93,1020.59,2037.02,3417.73,2994.00,3418.00,600.48,597.12,44.86,0000 0000 0000 0000 000000
2017-09-17 11:11:37,0.01,0.38,0.00,23.87,26.20,29.19,13.90,40.01,1020.84,2037.04,3417.15,2993.99,3418.00,600.36,597.19,44.91,0000 0000 0000 0000 000000
2017-09-17 11:16:38,0.00,0.38,0.00,23.90,26.20,29.19,13.77,39.88,1020.94,2037.03,3417.02,2993.98,3418.00,599.86,596.69,44.96,0000 0000 0000 0000 000000
2017-09-17 11:21:40,0.01,0.38,0.00,23.88,26.20,29.18,13.80,39.82,1020.96,2037.11,3417.01,2993.99,3418.00,599.92,596.81,45.01,0000 0000 0000 0000 000000
2017-09-17 11:26:41,-0.00,0.38,0.00,23.91,26.20,29.18,13.76,39.93,1020.94,2037.06,3417.00,2993.97,3417.97,600.00,596.71,45.06,0000 0000 0000 0000 000000
2017-09-17 11:31:42,0.00,0.38,0.00,23.86,26.20,29.19,13.79,39.95,1020.89,2037.02,3417.00,2993.98,3417.93,599.89,596.74,45.11,0000 0000 0000 0000 000000
2017-09-17 11:36:44,0.00,0.38,0.00,23.92,26.19,29.18,13.78,39.90,1020.85,2037.03,3416.99,2993.97,3417.87,599.97,596.59,45.16,0000 0000 0000 0000 000000
2017-09-17 11:41:45,0.00,0.38,0.00,23.87,26.18,29.17,13.79,40.01,1020.79,2037.02,3416.99,2993.97,3417.50,599.76,596.42,45.21,0000 0000 0000 0000 000000
2017-09-17 11:46:46,0.01,0.38,0.00,23.95,26.18,29.18,13.87,40.02,1020.82,2037.02,3416.96,2993.93,3417.18,600.35,596.92,45.26,0000 0000 0000 0000 000000
2017-09-17 11:51:48,0.02,0.38,0.00,23.90,26.17,29.17,13.71,40.05,1020.88,2037.07,3416.46,2993.78,3417.08,599.81,596.49,45.31,0000 0000 0000 0000 000000
2017-09-17 11:56:49,0.02,0.38,0.00,23.92,26.17,29.16,13.83,39.86,1020.79,2037.16,3416.03,2993.42,3417.02,599.66,596.31,45.36,0000 0000 0000 0000 000000
2017-09-17 12:01:50,-0.01,0.38,0.00,23.91,26.17,29.16,13.73,39.76,1020.69,2037.04,3416.05,2993.28,3417.00,599.73,596.28,45.41,0000 0000 0000 0000 000000
2017-09-17 12:06:52,0.00,0.38,0.00,23.90,26.17,29.14,13.81,40.03,1020.60,2037.02,3416.04,2993.23,3416.99,600.24,596.80,45.47,0000 0000 0000 0000 000000
2017-09-17 12:11:53,0.00,0.38,0.00,23.90,26.17,29.15,13.77,39.98,1020.64,2037.02,3416.01,2993.13,3416.98,599.81,596.41,45.52,0000 0000 0000 0000 000000
2017-09-17 12:16:55,-0.00,0.38,0.00,23.91,26.16,29.14,13.76,39.83,1020.64,2037.01,3416.00,2993.07,3416.96,600.14,596.65,45.57,0000 0000 0000 0000 000000
2017-09-17 12:21:56,0.00,0.38,0.00,23.90,26.15,29.14,13.83,40.22,1020.77,2037.02,3415.94,2993.01,3416.94,600.08,596.74,45.62,0000 0000 0000 0000 000000
2017-09-17 12:26:57,0.01,0.38,0.00,23.94,26.15,29.13,13.79,39.79,1020.85,2037.14,3415.87,2993.01,3416.95,600.19,596.88,45.67,0000 0000 0000 0000 000000
2017-09-17 12:31:58,0.05,0.39,0.00,23.94,26.15,29.12,13.78,39.80,1020.72,2037.53,3415.14,2993.00,3416.81,599.87,596.43,45.72,0000 0000 0000 0000 000000
2017-09-17 12:37:00,0.03,0.39,0.00,23.88,26.15,29.13,13.73,39.94,1020.59,2037.83,3415.00,2993.00,3416.35,599.78,596.47,45.77,0000 0000 0000 0000 000000
2017-09-17 12:42:01,-0.02,0.39,0.00,23.95,26.15,29.12,13.77,39.78,1020.61,2037.71,3415.00,2993.00,3416.02,599.95,596.42,45.82,0000 0000 0000 0000 000000
2017-09-17 12:47:02,0.00,0.39,0.00,23.90,26.14,29.11,13.79,39.89,1020.61,2037.58,3415.00,2993.00,3416.00,600.09,596.68,45.87,0000 0000 0000 0000 000000
2017-09-17 12:52:03,-0.03,0.39,0.00,23.91,26.13,29.10,13.74,39.83,1020.89,2037.42,3414.99,2993.00,3416.00,600.17,596.78,45.92,0000 0000 0000 0000 000000
2017-09-17 12:57:04,0.00,0.39,0.00,23.92,26.12,29.11,13.75,39.91,1020.99,2037.29,3414.80,2992.98,3415.99,600.06,596.72,45.97,0000 0000 0000 0000 000000